Hourly Data Report for October 21, 2016

All times are specified in Local Standard Time (LST). Add 1 hour to adjust for Daylight Saving Time where and when it is observed.

PANGNIRTUNG
NUNAVUT

66°08'36.300" N
65°42'40.500" W
22.60 m
2403049
71826
WXP

Download Data

Hourly Data (October 2016)
Hourly Data Report for October 21, 2016
Temp Definition
°C
Dew Point Temp Definition
°C
Rel Hum Definition
%
Wind Dir Definition
10's deg

Wind Spd Definition
km/h
Visibility Definition
km
Stn Press Definition
kPa
Hmdx Definition


Wind Chill Definition


Weather Definition


TIME
00:00 -3.5 -4.3 95 25 21   100.37   -10 LegendNANA
01:00 -3.3 -4.6 91 26 31   100.38   -11 LegendNANA
02:00 -3.3 -5.1 87 26 29   100.41   -11 LegendNANA
03:00 -3.3 -5.8 83 27 21   100.44   -10 LegendNANA
04:00 -4.2 -5.4 92 25 21   100.48   -11 LegendNANA
05:00 -4.2 -6.0 87 27 29   100.50   -12 LegendNANA
06:00 -4.4 -7.4 79 27 16   100.54   -10 LegendNANA
07:00 -4.5 -8.3 75 28 19   100.52   -11 LegendNANA
08:00 -5.0 -8.2 78 30 14   100.54   -10 LegendNANA
09:00 -5.0 -7.9 80 29 14   100.57   -10 LegendNANA
10:00 -4.9 -8.5 76 29 15   100.55   -10 LegendNANA
11:00 -4.9 -8.2 78 28 19   100.58   -11 LegendNANA
12:00 -5.2 -8.9 75 29 20   100.64   -12 LegendNANA
13:00 -5.0 -11.1 62 29 19   100.69   -11 LegendNANA
14:00 -5.4 -10.0 70 28 24   100.74   -13 LegendNANA
15:00 -6.1 -12.3 61 28 27   100.78   -14 LegendNANA
16:00 -6.9 -10.7 74 30 21   100.86   -14 LegendNANA
17:00 -7.6 -11.5 73 29 25   100.87   -16 LegendNANA
18:00 -7.5 -11.7 72 28 21   100.91   -15 LegendNANA
19:00 -7.4 -12.2 68 32 6   100.95   -11 LegendNANA
20:00 -7.8 -12.7 68 27 21   100.96   -15 LegendNANA
21:00 -7.9 -13.2 66 29 19   100.96   -15 LegendNANA
22:00 -8.6 -13.5 68 27 20   100.97   -16 LegendNANA
23:00 -8.7 -13.4 69 28 20   101.03   -16 LegendNANA

Notes on Data Quality.

Legend

  • E = Estimated
  • M = Missing
  • NA = Not Available
  • ‡ = Partner data that is not subject to review by the National Climate Archives
Date modified: